This is the latest recevied weather packets stored in our database for station/object SP2ARK-10. If no packets are shown the sender has not sent any weather packets the latest 10 day(s).
| Time | Temp. | Humidity | Pressure | Rain* | Wind** | Luminosity | Snow |
|---|---|---|---|---|---|---|---|
| 1777886443 | 21.67° C | 61% | 1017.8 hPa | - | - | - | - |
| 1777885543 | 21.11° C | 61% | 1018 hPa | - | - | - | - |
| 1777884642 | 21.11° C | 61% | 1018 hPa | - | - | - | - |
| 1777883742 | 20.56° C | 62% | 1017.9 hPa | - | - | - | - |
| 1777882841 | 20.56° C | 61% | 1017.8 hPa | - | - | - | - |
| 1777881941 | 20° C | 61% | 1017.6 hPa | - | - | - | - |
| 1777881040 | 19.44° C | 62% | 1017.6 hPa | - | - | - | - |
| 1777880140 | 19.44° C | 62% | 1017.5 hPa | - | - | - | - |
| 1777879240 | 18.89° C | 61% | 1017.8 hPa | - | - | - | - |
| 1777878340 | 18.33° C | 62% | 1017.6 hPa | - | - | - | - |
| 1777877439 | 18.33° C | 62% | 1017.5 hPa | - | - | - | - |
| 1777876538 | 17.78° C | 62% | 1017.6 hPa | - | - | - | - |
| 1777875637 | 17.78° C | 63% | 1017.5 hPa | - | - | - | - |
| 1777874736 | 17.22° C | 63% | 1017.5 hPa | - | - | - | - |
| 1777873836 | 17.22° C | 63% | 1017.4 hPa | - | - | - | - |
| 1777872935 | 17.22° C | 63% | 1017.3 hPa | - | - | - | - |
| 1777872034 | 16.67° C | 63% | 1017.5 hPa | - | - | - | - |
| 1777871134 | 16.67° C | 63% | 1017.4 hPa | - | - | - | - |
| 1777870233 | 17.22° C | 63% | 1017.5 hPa | - | - | - | - |
| 1777869333 | 17.22° C | 63% | 1017.4 hPa | - | - | - | - |
| 1777868432 | 17.78° C | 63% | 1017.4 hPa | - | - | - | - |
| 1777867532 | 17.78° C | 64% | 1017.5 hPa | - | - | - | - |
| 1777866630 | 17.78° C | 63% | 1017.4 hPa | - | - | - | - |
| 1777865729 | 17.78° C | 63% | 1017.4 hPa | - | - | - | - |
| 1777864829 | 17.78° C | 63% | 1017.4 hPa | - | - | - | - |
* Rain since midnight (hover to see other rain measurements)
** Current wind speed in m/s (hover to see current wind gust speed)